Location: Glencliff
(36.1226°N, 86.7183°W)
Time: 18:59:34
(UTC+00:00)

Cosmos 1500 Rocket - Pass Details

Date: 25 August 2019
Orbit: 602 x 632 km, 82.5° (Epoch: 15 September)

Event Time Altitude Azimuth Distance (km) Brightness Sun altitude
Rises 09:32:33 0° 354° (N) 2,860 7.3 -19.6°
Reaches altitude 10° 09:34:46 10° 355° (N) 1,954 6.4 -19.2°
Maximum altitude 09:39:05 83° 84° (E) 613 3.5 -18.4°
Drops below altitude 10° 09:43:24 10° 172° (S) 1,949 5.9 -17.7°
Enters shadow 09:45:22 - 173° (S) 2,752 6.7 -17.3°
